Weather History for KEVV - August, 2013

Change the Weather History Date:

Monday, August 5, 2013

  Actual Average Record
Temperature  
Mean Temperature 71 °F 78 °F  
Max Temperature 82 °F 88 °F 104 °F (1918)
Min Temperature 60 °F 67 °F 55 °F (1948)
Degree Days  
Heating Degree Days 0 0  
Month to date heating degree days 0 0  
Since 1 June heating degree days 1 6  
Since 1 July heating degree days 0 0  
Cooling Degree Days 6 12  
Month to date cooling degree days 49 63  
Year to date cooling degree days 867 899  
Since 1 June cooling degree days 696 764  
Growing Degree Days 21 (Base 50)    
Moisture  
Dew Point 60 °F    
Average Humidity 68    
Maximum Humidity 90    
Minimum Humidity 45    
Precipitation  
Precipitation 0.00 in 0.09 in 1.75 in (1995)
Month to date precipitation T 0.48  
Year to date precipitation 33.69 28.42  
Snow  
Snow 0.00 in 0.00 in 0.00 in (2002)
Month to date snowfall 0.0 0.0  
Since 1 June snowfall 0.0 0.0  
Since 1 July snowfall 0.0 0.0  
Snow Depth 0.00 in    
Sea Level Pressure  
Sea Level Pressure 30.04 in    
Wind  
Wind Speed 5 mph (SSE)    
Max Wind Speed 15 mph    
Max Gust Speed 21 mph    
Visibility 10 miles    
Events      
T = Trace of Precipitation, MM = Missing Value Source: NWS Daily Summary

Daily Weather History Graph

Daily Weather History Graph

Search for Another Location

Airport or City:

Trip Planner

Search our weather history database for the weather conditions in past years. The results will help you decide how hot, cold, wet, or windy it might be!

Date:

Astronomy

Aug. 05, 2013 Rise Set
Actual Time 5:56 AM CDT 7:54 PM CDT
Civil Twilight 5:27 AM CDT 8:23 PM CDT
Nautical Twilight 4:52 AM CDT 8:58 PM CDT
Astronomical Twilight 4:14 AM CDT 9:36 PM CDT
Moon 4:51 AM CDT (8/5) 6:55 PM CDT (8/5)
Length of Visible Light 14h 55m
Length of Day
13h 58m
Waning Crescent, 1% of the Moon is Illuminated
Aug 5
Waning Crescent
Aug 6
New
Aug 14
First Quarter
Aug 20
Full
Aug 28
Last Quarter

Hourly Weather History & Observations

Time (CDT) Temp. Heat Index Dew Point Humidity Pressure Visibility Wind Dir Wind Speed Gust Speed Precip Events Conditions
12:54 AM 63.0 °F - 57.9 °F 84% 30.10 in 10.0 mi Calm Calm - N/A   Clear
1:54 AM 61.0 °F - 57.9 °F 90% 30.10 in 10.0 mi Calm Calm - N/A   Clear
2:54 AM 61.0 °F - 57.9 °F 90% 30.09 in 10.0 mi Calm Calm - N/A   Clear
3:54 AM 61.0 °F - 57.9 °F 90% 30.09 in 10.0 mi Calm Calm - N/A   Clear
4:54 AM 61.0 °F - 57.9 °F 90% 30.08 in 10.0 mi NE 3.5 mph - N/A   Clear
5:54 AM 60.1 °F - 57.9 °F 93% 30.09 in 10.0 mi ENE 3.5 mph - N/A   Clear
6:54 AM 63.0 °F - 59.0 °F 87% 30.09 in 10.0 mi Calm Calm - N/A   Clear
7:54 AM 66.9 °F - 59.0 °F 76% 30.10 in 10.0 mi East 3.5 mph - N/A   Clear
8:54 AM 72.0 °F - 59.0 °F 64% 30.09 in 10.0 mi Variable 4.6 mph - N/A   Clear
9:54 AM 75.0 °F - 57.9 °F 55% 30.08 in 10.0 mi SE 5.8 mph - N/A   Clear
10:17 AM 77.0 °F - 57.2 °F 50% 30.08 in 8.0 mi Variable 6.9 mph - N/A   Partly Cloudy
10:54 AM 78.1 °F - 57.0 °F 48% 30.07 in 10.0 mi SSE 10.4 mph 16.1 mph N/A   Clear
11:54 AM 79.0 °F - 57.0 °F 47% 30.06 in 10.0 mi SE 8.1 mph - N/A   Clear
12:54 PM 80.1 °F 80.4 °F 57.0 °F 45% 30.06 in 10.0 mi Variable 3.5 mph - N/A   Clear
1:54 PM 82.0 °F 82.4 °F 60.1 °F 47% 30.03 in 10.0 mi Variable 6.9 mph - N/A   Scattered Clouds
2:54 PM 79.0 °F - 61.0 °F 54% 30.01 in 10.0 mi SSW 10.4 mph - N/A   Mostly Cloudy
3:54 PM 77.0 °F - 63.0 °F 62% 30.00 in 10.0 mi SSW 11.5 mph - N/A   Overcast
4:54 PM 75.0 °F - 63.0 °F 66% 29.98 in 10.0 mi South 8.1 mph - N/A   Overcast
5:54 PM 73.9 °F - 64.9 °F 73% 29.96 in 10.0 mi SSW 5.8 mph - N/A   Overcast
6:54 PM 73.0 °F - 64.0 °F 73% 29.96 in 10.0 mi WSW 6.9 mph - N/A   Overcast
7:54 PM 72.0 °F - 64.0 °F 76% 29.96 in 10.0 mi SSW 4.6 mph - N/A   Overcast
8:54 PM 72.0 °F - 64.0 °F 76% 29.96 in 10.0 mi SSW 4.6 mph - N/A   Overcast
9:54 PM 71.1 °F - 64.0 °F 78% 29.97 in 10.0 mi SSE 6.9 mph - N/A   Overcast
10:54 PM 71.1 °F - 63.0 °F 75% 29.96 in 10.0 mi SE 4.6 mph - N/A   Overcast
11:54 PM 71.1 °F - 63.0 °F 75% 29.95 in 10.0 mi SSE 3.5 mph - N/A   Overcast